Probability
0 0 0 0 0 0 0 0 0 0 0 0 0 0 0 0 0 0 0 0 0 0 0 0 0 0 0 0 0 0 0 0 0 0 0 0 0 0 0 0 0 0 0 0 0 0 0 0 0
0 0 0 0 0 0 0 0 0 0 0 0 0 0 0 0 0 0 0 0 0 0 0 0 0 0 0 0 0 0 0 0 0 0 0 0 0 0 0 0 0 0 0 0 0 0 0 0 0
0 0 0 0 0 0 0 0 0 0 0 0 0 0 0 0 0 0 0 0 0 0 0 0 0 0 0 0 0 0 0 0 0 0 0 0 0 0 0 0 0 0 0 0 0 0 0 0 0
0 0 0 0 0 0 0 0 0 0 0 0 0 0 0 0 0 0 0 0 0 0 0 0 0 0 0 0 0 0 0 0 0 0 0 0 0 0 0 0 0 0 0 0 0 0 0 0 0
0 0 0 0 0 0 0 0 0 0 0 0 0 0 0 0 0 0 0 0 0 0 0 0 0 0 0 0 0 0 0 0 0 0 0 0 0 0 0 0 0 0 0 0 0 0 0 0 0
0 0 0 0 0 0 0 0 0 0 0 0 0 0 0 0 0 0 0 0 0 0 0 0 0 0 0 0 0 0 0 0 0 0 0 0 0 0 0 0 0 0 0 0 0 0 0 0 0
0 0 0 0 0 0 0 0 0 0 0 0 0 0 0 0 0 0 0 0 0 0 0 0 0 0 0 0 0 0 0 0 0 0 0 0 0 0 0 0 0 0 0 0 0 0 0 0 0
0 0 0 0 0 0 0 0 0 0 0 0 0 0 0 0 0 0 0 0 0 0 0 0 0 0 0 0 0 0 0 0 0 0 0 0 0 0 0 0 0 0 0 0 0 0 0 0 0
0 0 0 0 0 0 0 0 0 0 0 0 0 0 0 0 0 0 0 0 0 0 0 0 0 0 0 0 0 0 0 0 0 0 0 0 0 0 0 0 0 0 0 0 0 0 0 0 0
0 0 0 0 0 0 0 0 0 0 0 0 0 0 0 0 0 0 0 0 0 0 0 0 0 0 0 0 0 0 0 0 0 0 0 0 0 0 0 0 0 0 0 0 0 0 0 0 0
0 0 0 0 0 0 0 0 0 0 0 0 0 0 0 0 0 0 0 0 0 0 0 0 0 0 0 0 0 0 0 0 0 0 0 0 0 0 0 0 0 0 0 0 0 0 0 0 0
0 0 0 0 0 0 0 0 0 0 0 0 0 0 0 0 0 0 0 0 0 0 0 0 0 0 0 0 0 0 0 0 0 0 0 0 0 0 0 0 0 0 0 0 0 0 0 0 0
0 0 0 0 0 0 0 0 0 0 0 0 0 0 0 0 0 0 0 0 0 0 0 0 0 0 0 0 0 0 0 0 0 0 0 0 0 0 0 0 0 0 0 0 0 0 0 0 0
0 0 0 0 0 0 0 0 0 0 0 0 0 0 0 0 0 0 0 0 0 0 0 0 0 0 0 0 0 0 0 0 0 0 0 0 0 0 0 0 0 0 0 0 0 0 0 0 0
0 0 0 0 0 0 0 0 0 0 0 0 0 0 0 0 0 0 0 0 0 0 0 0 0 0 0 0 0 0 0 0 0 0 0 0 0 0 0 0 0 0 0 0 0 0 0 0 0
0 0 0 0 0 0 0 0 0 0 0 0 0 0 0 0 0 0 0 0 0 0 0 0 0 0 0 0 0 0 0 0 0 0 0 0 0 0 0 0 0 0 0 0 0 0 0 0 0
0 0 0 0 0 0 0 0 0 0 0 0 0 0 0 0 0 0 0 0 0 0 0 0 0 0 0 0 0 0 0 0 0 0 0 0 0 0 0 0 0 0 0 0 0 0 0 0 0
0 0 0 0 0 0 0 0 0 0 0 0 0 0 0 0 0 0 0 0 0 0 0 0 0 0 0 0 0 0 0 0 0 0 0 0 0 0 0 0 0 0 0 0 0 0 0 0 0
0 0 0 0 0 0 0 0 0 0 0 0 0 0 0 0 0 0 1 1 1 0 0 0 0 0 0 0 0 0 0 0 0 0 0 0 0 0 0 0 0 0 0 0 0 0 0 0 0
0 0 0 0 0 0 0 0 0 0 0 0 0 0 0 0 0 0 1 2 2 1 0 0 0 0 0 0 0 0 0 0 0 0 0 0 0 0 0 0 0 0 0 0 0 0 0 0 0
0 0 0 0 0 0 0 0 0 0 0 0 0 0 0 0 0 0 1 2 2 1 0 0 0 0 0 0 0 0 0 0 0 0 0 0 0 0 0 0 0 0 0 0 0 0 0 0 0
0 0 0 0 0 0 0 0 0 0 0 0 0 0 0 0 0 0 1 2 2 1 0 0 0 0 0 0 0 0 0 0 0 0 0 0 0 0 0 0 0 0 0 0 0 0 0 0 0
0 0 0 0 0 0 0 0 0 0 0 0 0 0 0 0 0 0 0 1 2 1 0 0 0 0 0 0 0 0 0 0 0 0 0 0 0 0 0 0 0 0 0 0 0 0 0 0 0
0 0 0 0 0 0 0 0 0 0 0 0 0 0 0 0 0 0 0 1 2 2 1 1 0 0 0 0 0 0 0 0 0 0 0 0 0 0 0 0 0 0 0 0 0 0 0 0 0
0 0 0 0 0 0 0 0 0 0 0 0 0 0 0 0 0 0 0 0 1 1 2 2 1 0 0 0 0 0 0 0 0 0 0 0 0 0 0 0 0 0 0 0 0 0 0 0 0
0 0 0 0 0 0 0 0 0 0 0 0 0 0 0 0 0 0 0 0 0 0 1 1 1 0 0 0 0 1 1 1 0 0 0 0 0 0 0 0 0 0 0 0 0 0 0 0 0
0 0 0 0 0 0 0 0 0 0 0 0 0 0 0 0 0 0 0 0 0 0 0 0 0 0 0 0 0 1 2 2 1 0 0 0 0 0 0 0 0 0 0 0 0 0 0 0 0
0 0 0 0 0 0 0 0 0 0 0 0 0 0 0 0 0 0 0 0 0 0 0 0 0 0 0 0 0 1 2 3 2 1 0 0 0 0 0 0 0 0 0 0 0 0 0 0 0
0 0 0 0 0 0 0 0 0 0 0 0 0 0 0 0 0 0 0 0 0 0 0 0 0 0 0 0 0 0 1 3 3 2 1 0 0 0 0 0 0 1 1 1 0 0 0 0 0
0 0 0 0 0 0 0 0 0 0 0 0 0 0 0 0 0 0 0 0 0 0 0 0 0 0 0 0 0 0 1 2 3 3 2 1 0 0 0 0 1 2 2 2 1 0 1 1 1
Wind_Speed
16 13 7 3 3 2 3 4 5 4 5 6 6 4 7 10 7 9 5 9 13 13 12 10 10 11 12 12 12 12 12 12 12 12 13 13 13 13 14 14 14 15 15 15 16 16 16 16 15
13 12 6 3 3 1 4 5 5 7 7 5 2 1 5 9 8 8 6 9 12 12 11 11 11 11 12 12 11 12 12 12 12 12 12 12 12 13 13 14 13 14 14 15 15 15 15 14 14
13 10 4 3 2 2 4 5 7 8 5 2 3 3 6 7 8 6 7 9 11 10 10 12 11 11 12 11 11 11 12 11 11 12 12 12 12 12 12 13 13 13 13 14 14 14 14 13 12
6 4 4 3 2 3 3 5 7 7 4 0 2 7 6 5 5 8 9 9 10 10 11 11 11 11 11 11 11 11 12 11 11 11 11 11 11 11 12 12 12 12 13 13 13 13 12 12 11
5 3 4 3 2 2 4 5 4 5 5 4 1 6 7 5 9 10 8 9 9 9 10 11 10 10 10 11 11 11 11 11 11 11 11 11 11 10 11 11 11 11 12 12 12 12 11 10 9
4 3 4 3 2 2 3 3 2 3 5 5 1 5 7 7 8 8 7 7 8 9 10 10 9 9 9 10 10 10 11 11 11 10 11 10 10 10 9 10 10 10 11 11 11 10 10 9 8
4 4 6 5 2 2 4 2 2 2 3 4 1 4 7 7 8 7 6 6 8 9 9 9 8 8 8 9 9 9 10 10 10 10 9 9 9 8 8 8 9 9 9 10 9 9 9 8 6
3 4 6 6 4 2 4 3 0 2 2 4 1 2 7 9 9 7 6 6 7 7 7 8 8 8 7 7 9 9 9 9 10 9 9 9 9 8 7 6 7 8 8 9 9 8 8 7 5
3 4 6 5 3 1 4 3 2 3 2 3 4 6 8 15 11 7 5 4 5 6 6 7 7 7 7 7 9 8 9 9 9 8 9 8 5 5 5 6 7 7 7 8 8 7 7 5 3
3 4 6 4 4 3 2 2 3 2 4 4 6 8 11 12 11 10 9 8 7 7 6 6 7 7 7 7 7 5 6 6 6 6 6 4 4 4 5 8 7 7 6 6 7 7 6 4 3
4 5 5 3 4 5 2 2 1 3 5 5 9 13 13 11 10 10 10 9 9 8 7 6 6 6 6 4 5 4 4 5 5 7 7 4 3 3 4 3 4 4 5 4 5 4 3 4 3
6 7 6 3 2 3 3 3 3 5 4 4 3 12 13 12 12 12 11 10 9 9 9 7 6 5 6 5 4 4 4 4 4 5 7 4 3 3 4 3 4 4 3 4 4 3 4 3 2
9 7 6 4 2 3 4 6 6 7 6 1 3 8 10 11 10 10 9 9 9 10 10 9 8 7 6 5 4 4 4 5 5 5 6 5 4 4 4 3 4 4 4 4 4 4 4 3 3
5 7 7 6 5 4 5 8 7 8 6 4 4 6 9 10 11 10 10 10 10 10 10 10 10 9 7 6 5 4 4 4 5 5 6 7 5 5 4 4 4 4 4 4 4 4 4 3 3
4 6 8 9 8 5 4 10 11 11 8 7 7 8 8 9 10 11 11 10 10 10 10 11 11 10 9 8 7 5 4 5 5 5 6 7 6 6 5 5 5 4 4 4 4 4 3 3 4
5 7 9 9 10 7 6 12 10 9 10 10 9 8 8 9 10 10 10 10 10 9 11 11 10 11 11 9 8 5 5 5 5 5 6 8 8 7 5 5 5 5 4 4 4 4 3 3 4
7 10 11 9 10 9 10 10 8 6 8 9 9 9 8 8 9 9 10 10 10 11 11 12 12 12 11 10 7 6 5 6 5 5 6 7 9 8 6 5 5 6 5 5 5 4 4 4 4
10 10 10 11 8 10 12 12 9 7 8 9 9 9 9 9 10 9 9 10 9 10 10 11 12 12 10 9 7 6 7 6 6 6 7 9 8 9 8 6 6 6 5 5 5 5 5 4 4
9 10 11 9 6 9 13 14 13 11 10 10 9 9 9 9 9 9 10 10 9 10 11 12 12 12 11 9 9 9 9 8 7 7 9 10 10 10 9 7 7 7 6 7 7 6 6 5 3
15 13 12 7 6 6 9 14 13 13 14 12 12 11 10 9 9 8 9 10 11 11 11 12 12 12 12 11 10 8 7 7 8 7 9 11 11 11 10 10 8 8 7 8 8 7 5 5 5
18 17 13 9 4 5 6 12 15 15 15 15 13 11 11 11 10 9 9 9 10 11 12 11 12 13 13 12 8 7 7 6 8 10 10 11 12 12 12 12 10 10 9 9 10 9 10 7 6
17 15 13 10 6 5 6 9 10 11 14 15 14 12 12 12 10 9 9 9 10 10 10 11 11 12 12 13 11 12 11 12 12 9 9 10 12 13 13 13 12 11 10 10 10 11 9 8 7
10 7 10 10 8 8 8 10 8 9 13 13 14 14 13 11 10 9 8 8 8 9 9 10 10 11 12 13 14 13 13 11 8 7 9 10 11 13 14 13 13 13 11 11 11 11 11 10 9
7 4 3 5 6 15 16 13 10 10 13 10 10 11 11 10 9 8 7 6 6 7 8 9 10 11 11 12 13 15 15 13 10 10 10 10 9 11 14 14 13 13 12 13 13 12 13 12 11
10 8 6 9 11 13 11 13 12 8 9 10 9 8 7 7 7 7 7 6 6 6 7 8 9 10 10 12 13 14 15 14 14 12 11 10 9 10 14 15 15 14 14 13 12 12 13 13 13
17 15 11 9 8 5 9 15 10 7 6 6 6 5 5 5 6 6 6 5 4 5 6 7 9 9 9 10 11 11 12 10 10 12 10 10 9 10 10 14 14 15 14 13 13 12 13 11 14
15 17 11 5 3 4 7 7 6 5 6 6 6 5 5 5 5 4 3 3 3 3 4 5 6 7 7 8 9 9 10 10 10 10 10 9 9 8 11 12 14 15 15 15 14 12 14 12 13
11 9 7 10 9 10 8 10 8 8 9 8 7 7 6 4 3 2 1 1 1 1 2 3 4 6 6 7 7 7 8 9 9 8 9 9 9 9 9 11 13 13 14 15 14 12 12 14 13
14 14 10 8 7 7 7 7 5 8 9 9 8 6 5 3 2 1 0 0 1 0 0 1 2 3 4 5 6 7 7 8 8 9 9 9 9 9 10 11 11 12 13 14 14 15 13 15 15
16 17 16 11 9 7 6 7 0 2 5 6 5 4 3 3 2 1 1 1 1 1 1 1 2 2 3 4 5 6 6 6 7 8 9 9 9 9 10 10 10 11 12 13 14 15 15 16 16
Wind_Direction
310 302 288 269 255 219 93 87 88 94 84 59 38 8 48 46 43 102 130 114 115 118 125 127 124 126 124 122 120 116 114 110 107 104 101 98 95 94 94 93 92 91 90 88 87 86 85 84 84
303 302 295 253 259 221 117 120 105 79 82 92 92 326 84 79 80 108 121 116 120 126 134 129 126 128 127 126 123 121 117 114 111 108 104 101 97 95 94 95 94 94 93 91 90 89 88 87 86
296 283 275 272 295 3 95 101 101 91 101 136 125 40 44 80 109 120 124 129 123 126 122 124 130 130 131 129 127 124 121 118 115 111 108 104 100 95 94 95 95 96 95 94 93 91 90 88 87
303 286 245 256 287 46 72 97 105 118 128 161 138 106 80 45 88 114 129 133 126 123 121 129 133 133 133 132 131 130 126 124 121 116 112 107 102 98 97 96 95 97 97 96 96 95 93 90 87
276 265 262 254 252 82 75 84 120 145 150 152 227 106 96 76 92 117 141 133 127 125 125 135 135 136 136 137 137 136 133 130 126 122 117 112 108 105 103 102 100 100 101 100 100 99 97 94 88
296 280 265 246 188 133 118 119 172 158 131 129 194 109 102 121 122 138 143 135 133 128 127 134 134 138 141 141 139 138 139 136 132 128 123 119 114 111 109 109 107 107 107 106 104 104 103 98 88
312 293 279 277 225 179 131 137 220 184 144 133 155 106 120 139 133 144 146 142 135 131 134 141 147 146 145 145 144 141 138 137 135 132 126 119 114 110 106 108 115 116 114 114 111 110 108 104 92
317 293 269 264 249 191 136 155 303 312 91 76 13 77 132 144 139 148 154 146 138 140 148 153 158 157 155 151 150 145 141 138 136 131 127 122 117 115 116 115 118 124 124 123 122 120 119 115 106
294 264 261 261 272 153 132 164 131 3 89 101 69 52 101 129 139 148 152 149 145 153 160 162 163 162 160 160 156 150 146 143 138 134 139 141 148 143 145 128 124 128 131 134 135 136 133 129 137
231 247 256 301 343 360 123 189 148 198 191 161 127 104 116 135 152 164 171 174 174 176 175 170 170 167 163 161 151 162 161 157 163 155 163 183 174 152 138 127 131 134 139 146 153 157 160 172 184
233 243 271 300 352 350 344 289 232 234 231 199 168 151 148 158 169 179 185 186 183 182 182 179 176 171 164 154 159 167 165 169 179 169 178 183 158 134 129 135 138 147 158 166 166 175 205 211 193
250 255 266 289 2 345 320 308 282 253 273 10 100 148 156 173 185 190 190 190 183 183 186 186 182 177 168 164 171 168 165 171 179 175 178 173 163 166 164 163 172 177 185 185 180 199 214 210 203
238 255 259 262 265 282 298 279 273 262 264 289 95 142 170 186 194 196 193 189 184 186 185 185 185 185 178 176 181 179 176 174 182 176 180 178 173 180 178 180 178 184 184 183 194 201 201 202 210
244 253 260 251 239 230 250 264 256 252 250 234 195 187 193 196 196 195 194 193 193 190 187 184 186 188 185 187 191 187 183 180 185 181 183 186 183 183 181 184 184 194 189 185 193 202 197 200 204
264 264 257 239 227 222 233 256 237 242 241 232 221 214 214 206 198 199 198 197 195 191 186 186 187 187 190 195 197 195 190 186 192 186 187 189 192 190 185 186 187 196 193 190 194 208 200 199 203
223 235 240 227 213 202 201 250 243 226 222 230 227 222 217 214 205 202 198 196 195 189 187 189 187 189 192 196 198 199 198 195 197 193 191 194 197 196 190 191 193 192 189 185 191 200 199 206 208
211 227 232 231 207 199 207 247 253 237 225 229 227 225 220 215 211 206 199 194 193 190 188 188 188 191 193 194 197 200 204 206 202 198 198 198 198 199 195 196 195 189 189 191 196 197 196 204 212
201 218 231 228 202 206 221 240 249 248 241 238 234 228 225 220 214 207 201 196 192 189 188 189 190 192 191 191 196 201 209 215 212 206 203 199 199 199 199 200 198 190 190 195 196 198 201 203 203
229 225 232 236 211 211 231 243 246 245 245 242 239 237 233 227 220 205 197 192 189 189 189 192 193 192 189 193 196 201 209 210 215 215 207 202 200 199 200 202 200 197 198 199 196 192 202 209 196
235 242 243 252 237 229 248 254 252 246 244 239 237 235 237 237 227 214 199 192 191 193 194 195 197 193 193 198 198 200 202 210 216 219 216 208 203 201 202 203 202 200 200 202 201 196 196 201 187
223 230 234 238 250 248 270 265 247 246 243 242 237 233 232 234 230 219 208 199 194 196 198 201 201 199 197 195 193 196 203 208 210 213 216 213 208 204 204 205 204 203 203 207 206 200 198 204 202
227 222 231 235 230 238 217 267 242 240 239 234 232 230 231 232 230 223 212 205 200 200 199 202 203 202 198 193 196 197 203 211 213 210 210 209 208 209 208 208 207 208 209 210 208 206 204 199 205
221 209 221 229 234 247 231 256 255 226 238 232 226 224 226 223 221 225 219 210 203 197 197 201 204 205 201 198 200 203 213 218 216 209 207 207 208 210 211 211 212 213 213 213 209 207 207 208 209
201 189 223 235 233 242 228 234 258 216 228 230 227 220 218 217 216 222 223 215 209 198 195 198 203 207 204 203 205 208 215 216 215 214 212 210 209 209 210 212 214 216 217 216 215 212 211 213 214
188 174 199 208 217 235 207 223 247 213 218 219 222 222 214 211 213 218 225 221 209 199 197 198 202 209 208 207 209 212 217 218 219 219 217 214 212 212 211 209 213 216 218 218 216 216 217 215 215
199 196 201 207 214 227 191 222 240 209 210 206 208 211 215 214 208 211 213 213 210 206 201 199 204 212 213 212 215 217 218 219 223 222 220 219 219 219 212 209 213 216 217 218 217 220 221 220 220
199 210 221 243 239 249 227 237 239 194 190 196 202 206 214 213 204 198 197 204 206 208 209 208 210 215 217 218 219 221 222 222 226 226 224 225 225 221 214 211 213 215 216 217 217 222 222 221 222
210 187 189 212 220 232 236 227 225 195 199 203 207 208 212 205 182 168 182 207 219 215 225 222 222 222 221 220 222 226 227 228 230 230 230 229 229 225 219 216 215 215 216 216 218 222 223 224 225
199 202 204 202 206 214 233 239 208 195 188 188 194 192 182 175 161 171 197 328 28 14 290 257 249 242 238 232 230 232 233 231 232 232 234 233 233 229 226 221 219 217 217 216 218 222 221 225 228
207 208 205 209 212 213 231 249 257 124 157 168 179 172 168 164 166 165 125 49 13 313 285 285 276 265 262 253 245 241 239 236 235 237 239 238 239 235 230 226 224 223 221 218 220 223 223 225 228